Regional Weather Roundup
Issued by NWS

Home | Current Version | Previous Version | Text Only | Print | Product List | Glossary On
Versions: 1 2 3 4 5 6 7 8 9 10 11 12 13 14 15 16 17 18 19 20 21 22 23 24 25 26 27 28 29 30 31 32 33 34 35 36 37 38 39 40 41 42 43 44 45 46 47 48 49 50
000
ASMX46 KSGX 280510
RWRMX

MEXICAN WEATHER ROUNDUP
NATIONAL WEATHER SERVICE SAN DIEGO CA
1000 PM PDT SUN JUL 27 2014

BAJA CALIFORNIA

CITY           SKY/WX    TMP DP  RH WIND       PRES   REMARKS
ENSENADA NW      N/A     69  32  25 NW1       29.99R
LA PAZ         PTCLDY    84  66  54 S6        29.98R
MEXICALI       PTCLDY    88  63  42 S2        29.87R
S.J. DEL CABO  CLEAR     84  72  65 SE6       29.97R
TIJUANA        PTCLDY    72  61  68 CALM      30.03R

NORTHWESTERN MEXICO

CITY           SKY/WX    TMP DP  RH WIND       PRES   REMARKS
CHIHUAHUA      CLOUDY    81  50  34 S12       30.20R
CULIACAN         N/A    N/A N/A N/A MISG        N/A
LOS MOCHIS       N/A    N/A N/A N/A MISG        N/A

NORTHEASTERN MEXICO

CITY           SKY/WX    TMP DP  RH WIND       PRES   REMARKS
MATAMOROS      CLEAR     82  79  89 E7        30.05S
MONTERREY      CLEAR     84  66  54 E12       30.01R
REYNOSA        PTCLDY    81  72  74 E9        30.03S
TORREON        PTCLDY    84  54  34 CALM      30.11R
VICTORIA       CLEAR     81  70  69 S13       30.06R

WESTERN MEXICO

CITY           SKY/WX    TMP DP  RH WIND       PRES   REMARKS
AGUASCALIENTES CLEAR     66  50  55 W5        30.37R
GUADALAJARA    MOCLDY    64  57  77 SE6       30.28R
MAZATLAN       TSTM      73  70  88 W13       29.99R
PTO. VALLARTA  CLOUDY    77  73  88 NW5       29.97S
ZACATECAS      MOCLDY    64  45  48 SE9       30.38R

CENTRAL MEXICO

CITY           SKY/WX    TMP DP  RH WIND       PRES   REMARKS
LEON           PTCLDY    66  54  63 CALM      30.38R
MEXICO CITY    MOCLDY    64  50  59 NW3       30.43R
MORELIA        PTCLDY    57  55  94 W5        30.34R
QUERETARO      CLEAR     63  52  67 NE6       30.38R
S. LUIS POTOSI CLEAR     63  57  82 SE8       30.38R
TOLUCA         MOCLDY    54  45  71 SW5       30.53R
VERACRUZ       PTCLDY    79  75  89 NW5       30.06R

SOUTHERN MEXICO

CITY           SKY/WX    TMP DP  RH WIND       PRES   REMARKS
ACAPULCO       CLOUDY    79  72  78 N3        29.95
TAPACHULA      MOCLDY    79  79 100 CALM      29.97F
TUX. GUTIERREZ CLOUDY    72  70  94 CALM      30.08S
VILLAHERMOSA   MOCLDY    81  68  65 NE12      30.04F

YUCATAN PENINSULA

CITY           SKY/WX    TMP DP  RH WIND       PRES   REMARKS
CAMPECHE       CLEAR     84  72  65 E12       30.03R
CANCUN         PTCLDY    82  77  83 E6        30.09R
COZUMEL        PTCLDY    75  75 100 CALM      30.09R
MERIDA         CLEAR     81  73  78 E7        30.07R

$$




USA.gov is the U.S. government's official web portal to all federal, state and local government web resources and services.